sat.trackr.live / text

‹ back to catalog

STARLINK-2655

NORAD 48449 · 2021-040X

PAYLOAD ACTIVE UNKNOWN

§ Identity

Operator
Country
US
Launch date
2021-05-09
Launch site
AFETR
Launch vehicle
Mass (kg)
RCS (m²)

Purposes: comms

External: N2YO · Heavens-Above · Gunter

§ Orbital elements

Epoch: 2026-09-09T22:18:31.347072Z

Period
93.99 min
Inclination
53.1602°
Eccentricity
0.0001075
Mean motion
15.32000955 rev/d
Perigee alt
469.1 km
Apogee alt
470.6 km
Semi-major
6,848.0 km
B*
1.4076e-3
RAAN
40.7257°
Arg perigee
64.3093°
Mean anomaly
295.8020°
Rev number
29,491

§ Raw data

STARLINK-26551 48449U 21040X   26252.92952948  .00043987  00000+0  14076-2 0  99912 48449  53.1602  40.7257 0001075  64.3093 295.8020 15.32000955294912

JSON: /api/v1/satellites/48449 · /tle

For live sub-satellite position, see the globe view (requires WebGL).

§ Visibility from observer

Set your observer location to see the next 7 days of passes ≥ 10°. The values pass through the URL so the page stays shareable.

No JS? Fill the form by hand. The geolocation button needs JavaScript.